This is the latest recevied weather packets stored in our database for station/object DG9VH-13. If no packets are shown the sender has not sent any weather packets the latest 10 day(s).
| Time | Temp. | Humidity | Pressure | Rain* | Wind** | Luminosity | Snow |
|---|---|---|---|---|---|---|---|
| 1777522804 | 9.44° C | 37% | 1008 hPa | - | - | - | - |
| 1777522201 | 9.44° C | 37% | 1008 hPa | - | - | - | - |
| 1777521604 | 10° C | 36% | 1007.9 hPa | - | - | - | - |
| 1777521001 | 10.56° C | 36% | 1008 hPa | - | - | - | - |
| 1777520404 | 10.56° C | 36% | 1007.9 hPa | - | - | - | - |
| 1777519801 | 10.56° C | 36% | 1007.8 hPa | - | - | - | - |
| 1777519200 | 10.56° C | 36% | 1007.9 hPa | - | - | - | - |
| 1777518601 | 10.56° C | 36% | 1007.9 hPa | - | - | - | - |
| 1777518004 | 10° C | 36% | 1007.9 hPa | - | - | - | - |
| 1777517404 | 11.11° C | 35% | 1007.8 hPa | - | - | - | - |
| 1777515604 | 11.67° C | 35% | 1007.6 hPa | - | - | - | - |
| 1777515004 | 11.11° C | 35% | 1007.6 hPa | - | - | - | - |
| 1777514404 | 11.67° C | 36% | 1007.5 hPa | - | - | - | - |
| 1777513804 | 11.67° C | 35% | 1007.5 hPa | - | - | - | - |
| 1777513201 | 11.67° C | 35% | 1007.5 hPa | - | - | - | - |
| 1777512606 | 11.67° C | 35% | 1007.5 hPa | - | - | - | - |
| 1777512000 | 12.22° C | 34% | 1007.4 hPa | - | - | - | - |
| 1777511404 | 12.22° C | 34% | 1007.4 hPa | - | - | - | - |
| 1777510804 | 12.78° C | 34% | 1007.4 hPa | - | - | - | - |
| 1777510204 | 12.78° C | 34% | 1007.4 hPa | - | - | - | - |
| 1777509601 | 12.78° C | 33% | 1007.5 hPa | - | - | - | - |
| 1777509001 | 12.78° C | 34% | 1007.3 hPa | - | - | - | - |
| 1777508404 | 12.78° C | 34% | 1007.3 hPa | - | - | - | - |
| 1777507804 | 12.78° C | 34% | 1007.3 hPa | - | - | - | - |
| 1777507201 | 12.78° C | 33% | 1007.2 hPa | - | - | - | - |
* Rain since midnight (hover to see other rain measurements)
** Current wind speed in m/s (hover to see current wind gust speed)